TimeEDT,TemperatureF,Dew PointF,Humidity,Sea Level PressureIn,VisibilityMPH,Wind Direction,Wind SpeedMPH,Gust SpeedMPH,PrecipitationIn,Events,Conditions,WindDirDegrees,DateUTC
12:15 AM,64.4,64.4,100,29.97,5.0,South,5.8,-,N/A,,Scattered Clouds,190,2013-08-04 04:15:00
12:35 AM,62.6,62.6,100,29.97,5.0,SSW,6.9,-,N/A,,Scattered Clouds,210,2013-08-04 04:35:00
12:55 AM,64.4,64.4,100,29.97,7.0,South,3.5,-,N/A,,Scattered Clouds,190,2013-08-04 04:55:00
1:15 AM,62.6,62.6,100,29.97,5.0,South,4.6,-,N/A,,Scattered Clouds,180,2013-08-04 05:15:00
1:35 AM,62.6,62.6,100,29.97,5.0,SSW,4.6,-,N/A,,Mostly Cloudy,210,2013-08-04 05:35:00
1:55 AM,62.6,62.6,100,29.96,4.0,Calm,Calm,-,N/A,,Overcast,0,2013-08-04 05:55:00
2:15 AM,62.6,62.6,100,29.97,4.0,Calm,Calm,-,N/A,,Mostly Cloudy,0,2013-08-04 06:15:00
2:35 AM,60.8,60.8,100,29.96,1.2,Calm,Calm,-,N/A,,Scattered Clouds,0,2013-08-04 06:35:00
3:00 AM,60.8,60.8,100,29.96,0.5,Calm,Calm,-,N/A,Fog,Fog,0,2013-08-04 07:00:00
3:20 AM,60.8,60.8,100,29.96,2.5,Calm,Calm,-,N/A,,Mostly Cloudy,0,2013-08-04 07:20:00
3:40 AM,60.8,60.8,100,29.96,4.0,Calm,Calm,-,N/A,,Mostly Cloudy,0,2013-08-04 07:40:00
4:00 AM,60.8,60.8,100,29.96,3.0,Calm,Calm,-,N/A,,Scattered Clouds,0,2013-08-04 08:00:00
4:20 AM,59.0,59.0,100,29.97,2.0,Calm,Calm,-,N/A,,Clear,0,2013-08-04 08:20:00
4:40 AM,59.0,59.0,100,29.97,0.5,Calm,Calm,-,N/A,Fog,Fog,0,2013-08-04 08:40:00
5:00 AM,57.2,57.2,100,29.97,0.5,Calm,Calm,-,N/A,Fog,Fog,0,2013-08-04 09:00:00
5:20 AM,59.0,59.0,100,29.97,2.0,Calm,Calm,-,N/A,,Scattered Clouds,0,2013-08-04 09:20:00
5:40 AM,57.2,57.2,100,29.98,1.0,Calm,Calm,-,N/A,,Mist,0,2013-08-04 09:40:00
6:00 AM,55.4,55.4,100,29.98,0.5,Calm,Calm,-,N/A,Fog,Fog,0,2013-08-04 10:00:00
6:20 AM,55.4,55.4,100,29.99,0.2,Calm,Calm,-,N/A,Fog,Fog,0,2013-08-04 10:20:00
6:40 AM,53.6,53.6,100,29.99,1.8,Calm,Calm,-,N/A,,Mist,0,2013-08-04 10:40:00
6:45 AM,55.4,55.4,100,29.99,1.8,Calm,Calm,-,N/A,,Mist,0,2013-08-04 10:45:00
6:49 AM,55.4,55.4,100,30.00,10.0,Calm,Calm,-,N/A,,Clear,0,2013-08-04 10:49:00
7:45 AM,62.6,62.6,100,30.00,10.0,Calm,Calm,-,N/A,,Clear,0,2013-08-04 11:45:00
8:50 AM,71.6,60.8,69,30.01,10.0,Variable,5.8,-,N/A,,Clear,0,2013-08-04 12:50:00
9:46 AM,73.4,59.0,61,30.01,10.0,North,8.1,-,N/A,,Clear,350,2013-08-04 13:46:00
10:50 AM,75.2,59.0,57,30.02,10.0,North,8.1,-,N/A,,Scattered Clouds,350,2013-08-04 14:50:00
11:50 AM,77.0,59.0,54,30.02,10.0,NNW,10.4,17.3,N/A,,Mostly Cloudy,330,2013-08-04 15:50:00
12:50 PM,75.2,57.2,53,30.01,10.0,NNW,9.2,-,N/A,,Mostly Cloudy,330,2013-08-04 16:50:00
1:50 PM,78.8,59.0,51,30.00,10.0,NW,17.3,25.3,N/A,,Mostly Cloudy,310,2013-08-04 17:50:00
3:45 PM,80.6,55.4,42,30.00,10.0,NNW,15.0,25.3,N/A,,Mostly Cloudy,330,2013-08-04 19:45:00
4:45 PM,80.6,55.4,42,30.01,10.0,North,10.4,-,N/A,,Scattered Clouds,360,2013-08-04 20:45:00
5:50 PM,78.8,55.4,44,30.00,10.0,North,10.4,-,N/A,,Scattered Clouds,10,2013-08-04 21:50:00
6:50 PM,77.0,55.4,47,30.01,10.0,NNE,9.2,-,N/A,,Clear,20,2013-08-04 22:50:00
7:45 PM,73.4,55.4,53,30.02,10.0,Variable,4.6,-,N/A,,Clear,0,2013-08-04 23:45:00
9:00 PM,66.2,55.4,68,30.03,10.0,Calm,Calm,-,N/A,,Clear,0,2013-08-05 01:00:00
9:20 PM,64.4,57.2,77,30.04,10.0,Calm,Calm,-,N/A,,Clear,0,2013-08-05 01:20:00
9:40 PM,60.8,57.2,88,30.05,10.0,Calm,Calm,-,N/A,,Clear,0,2013-08-05 01:40:00
10:00 PM,60.8,57.2,88,30.05,10.0,Calm,Calm,-,N/A,,Clear,0,2013-08-05 02:00:00
10:20 PM,59.0,57.2,94,30.06,10.0,Calm,Calm,-,N/A,,Clear,0,2013-08-05 02:20:00
10:40 PM,59.0,59.0,100,30.06,10.0,Calm,Calm,-,N/A,,Clear,0,2013-08-05 02:40:00
11:00 PM,59.0,57.2,94,30.06,10.0,Calm,Calm,-,N/A,,Clear,0,2013-08-05 03:00:00
11:20 PM,59.0,57.2,94,30.07,10.0,Calm,Calm,-,N/A,,Clear,0,2013-08-05 03:20:00
11:40 PM,57.2,55.4,94,30.07,10.0,Calm,Calm,-,N/A,,Clear,0,2013-08-05 03:40:00